QPF
0.01 0.02 0.03 0.03 0.02 0.02 0.02 0.02 0.02 0.04 0.04 0.03 0.03 0.02 0.03 0.04 0.04 0.03 0.04 0.04 0.03 0.04 0.05 0.04 0.04 0.04 0.05 0.04 0.05 0.05 0.04 0.04 0.03 0.02 0.02 0.01 0.01 0.01 0.00 0.01 0.01 0.01 0.01
0.01 0.01 0.02 0.03 0.02 0.02 0.02 0.03 0.03 0.05 0.06 0.06 0.05 0.04 0.04 0.04 0.05 0.03 0.04 0.05 0.04 0.03 0.04 0.05 0.06 0.05 0.04 0.04 0.04 0.04 0.05 0.04 0.03 0.02 0.02 0.02 0.02 0.02 0.01 0.01 0.01 0.01 0.01
0.01 0.02 0.02 0.02 0.02 0.02 0.03 0.03 0.05 0.06 0.05 0.05 0.06 0.05 0.05 0.05 0.07 0.06 0.04 0.05 0.05 0.05 0.05 0.05 0.05 0.06 0.06 0.06 0.05 0.03 0.04 0.04 0.03 0.02 0.02 0.02 0.02 0.01 0.01 0.01 0.00 0.01 0.00
0.02 0.03 0.03 0.02 0.03 0.03 0.03 0.06 0.07 0.07 0.07 0.06 0.06 0.05 0.05 0.06 0.07 0.07 0.06 0.04 0.07 0.06 0.05 0.04 0.04 0.05 0.06 0.08 0.07 0.06 0.05 0.04 0.03 0.03 0.03 0.03 0.03 0.02 0.01 0.01 0.01 0.01 0.00
0.03 0.04 0.04 0.05 0.03 0.04 0.04 0.04 0.06 0.08 0.08 0.08 0.07 0.06 0.05 0.06 0.05 0.04 0.05 0.05 0.06 0.06 0.07 0.05 0.04 0.05 0.07 0.09 0.11 0.10 0.09 0.07 0.05 0.04 0.03 0.03 0.03 0.03 0.02 0.01 0.01 0.01 0.01
0.06 0.05 0.05 0.05 0.03 0.04 0.06 0.07 0.09 0.08 0.06 0.06 0.04 0.04 0.04 0.03 0.04 0.05 0.04 0.05 0.05 0.03 0.05 0.05 0.06 0.04 0.05 0.07 0.06 0.07 0.11 0.12 0.10 0.08 0.07 0.06 0.06 0.05 0.03 0.02 0.02 0.01 0.01
0.08 0.08 0.06 0.07 0.06 0.05 0.07 0.06 0.05 0.05 0.04 0.03 0.05 0.05 0.04 0.02 0.03 0.05 0.04 0.05 0.03 0.04 0.06 0.07 0.08 0.08 0.06 0.03 0.03 0.06 0.11 0.16 0.16 0.12 0.09 0.06 0.06 0.06 0.04 0.02 0.02 0.01 0.01
0.07 0.07 0.08 0.08 0.07 0.08 0.06 0.05 0.05 0.04 0.03 0.03 0.04 0.05 0.05 0.05 0.04 0.02 0.03 0.04 0.03 0.04 0.05 0.05 0.06 0.09 0.08 0.09 0.05 0.03 0.08 0.13 0.15 0.12 0.09 0.07 0.06 0.06 0.05 0.04 0.03 0.02 0.02
0.07 0.08 0.10 0.10 0.08 0.07 0.06 0.06 0.04 0.04 0.04 0.03 0.03 0.03 0.03 0.03 0.03 0.02 0.02 0.01 0.02 0.05 0.06 0.06 0.04 0.06 0.06 0.08 0.09 0.05 0.04 0.07 0.08 0.10 0.09 0.06 0.05 0.04 0.03 0.04 0.04 0.04 0.03
0.08 0.09 0.09 0.11 0.09 0.06 0.07 0.05 0.04 0.04 0.05 0.05 0.03 0.02 0.02 0.03 0.03 0.03 0.03 0.02 0.01 0.03 0.04 0.04 0.03 0.05 0.04 0.06 0.07 0.03 0.01 0.02 0.04 0.06 0.07 0.05 0.04 0.03 0.02 0.02 0.04 0.05 0.04
0.07 0.07 0.07 0.08 0.09 0.06 0.07 0.05 0.04 0.04 0.03 0.03 0.03 0.02 0.02 0.03 0.02 0.03 0.05 0.04 0.02 0.02 0.02 0.03 0.03 0.03 0.03 0.03 0.04 0.02 0.01 0.01 0.01 0.04 0.05 0.06 0.05 0.03 0.03 0.03 0.03 0.04 0.04
0.07 0.07 0.06 0.09 0.09 0.08 0.08 0.06 0.05 0.04 0.04 0.03 0.02 0.02 0.03 0.03 0.02 0.02 0.03 0.04 0.03 0.02 0.02 0.02 0.01 0.02 0.02 0.02 0.01 0.01 0.01 0.01 0.01 0.01 0.01 0.03 0.04 0.04 0.03 0.03 0.03 0.03 0.03
0.07 0.07 0.06 0.07 0.07 0.08 0.08 0.07 0.06 0.04 0.04 0.03 0.03 0.02 0.03 0.02 0.01 0.02 0.02 0.02 0.03 0.02 0.02 0.02 0.01 0.02 0.01 0.01 0.02 0.00 0.00 0.00 0.01 0.01 0.01 0.01 0.01 0.02 0.02 0.01 0.02 0.02 0.02
0.07 0.07 0.06 0.06 0.07 0.07 0.06 0.05 0.04 0.04 0.04 0.04 0.03 0.04 0.03 0.01 0.01 0.01 0.01 0.02 0.03 0.02 0.02 0.02 0.01 0.01 0.01 0.01 0.01 0.00 0.02 0.01 0.01 0.00 0.00 0.00 0.00 0.00 0.00 0.00 0.00 0.01 0.01
0.08 0.07 0.06 0.06 0.07 0.07 0.07 0.07 0.05 0.05 0.05 0.04 0.03 0.03 0.02 0.02 0.01 0.00 0.00 0.01 0.02 0.02 0.02 0.03 0.02 0.01 0.01 0.01 0.01 0.02 0.03 0.01 0.01 0.01 0.01 0.01 0.00 0.00 0.00 0.00 0.00 0.00 0.00
0.08 0.08 0.08 0.07 0.07 0.07 0.08 0.08 0.07 0.07 0.07 0.05 0.03 0.03 0.03 0.02 0.02 0.01 0.01 0.01 0.01 0.01 0.02 0.03 0.02 0.01 0.01 0.01 0.01 0.02 0.02 0.01 0.01 0.01 0.01 0.01 0.01 0.01 0.00 0.00 0.00 0.00 0.00
0.07 0.07 0.09 0.12 0.10 0.08 0.07 0.08 0.08 0.07 0.07 0.07 0.05 0.04 0.04 0.03 0.03 0.02 0.02 0.02 0.02 0.03 0.03 0.04 0.03 0.02 0.02 0.02 0.02 0.02 0.02 0.02 0.01 0.01 0.01 0.01 0.01 0.01 0.01 0.01 0.01 0.01 0.01
0.08 0.09 0.07 0.08 0.07 0.06 0.06 0.06 0.06 0.07 0.08 0.09 0.08 0.06 0.05 0.04 0.04 0.04 0.04 0.05 0.05 0.06 0.06 0.07 0.04 0.03 0.03 0.02 0.03 0.03 0.01 0.01 0.01 0.01 0.01 0.01 0.01 0.01 0.01 0.01 0.01 0.01 0.01
0.11 0.11 0.10 0.08 0.07 0.05 0.05 0.05 0.06 0.05 0.06 0.07 0.08 0.09 0.09 0.09 0.08 0.08 0.08 0.07 0.06 0.05 0.06 0.07 0.06 0.05 0.04 0.03 0.03 0.02 0.01 0.01 0.01 0.01 0.00 0.00 0.00 0.01 0.01 0.01 0.01 0.01 0.01
0.14 0.13 0.12 0.10 0.09 0.08 0.08 0.09 0.09 0.09 0.09 0.09 0.09 0.09 0.09 0.09 0.08 0.07 0.07 0.06 0.06 0.07 0.07 0.07 0.07 0.06 0.04 0.03 0.03 0.03 0.02 0.01 0.01 0.01 0.01 0.01 0.01 0.01 0.01 0.01 0.01 0.01 0.01
0.12 0.13 0.13 0.12 0.12 0.11 0.11 0.12 0.12 0.12 0.11 0.11 0.10 0.10 0.09 0.09 0.10 0.09 0.09 0.10 0.09 0.10 0.09 0.09 0.08 0.06 0.05 0.05 0.04 0.03 0.03 0.02 0.02 0.02 0.02 0.01 0.01 0.01 0.01 0.01 0.01 0.01 0.01
0.10 0.11 0.11 0.11 0.12 0.13 0.14 0.14 0.15 0.16 0.15 0.13 0.10 0.08 0.07 0.06 0.06 0.06 0.06 0.06 0.07 0.07 0.07 0.06 0.06 0.06 0.05 0.04 0.04 0.03 0.03 0.03 0.03 0.02 0.02 0.02 0.02 0.02 0.02 0.02 0.02 0.02 0.02
0.09 0.10 0.11 0.11 0.12 0.14 0.16 0.16 0.16 0.15 0.15 0.14 0.13 0.12 0.10 0.07 0.05 0.05 0.05 0.04 0.04 0.04 0.04 0.04 0.05 0.05 0.05 0.04 0.03 0.02 0.02 0.02 0.03 0.02 0.02 0.03 0.02 0.02 0.02 0.02 0.02 0.02 0.02
0.08 0.09 0.10 0.08 0.09 0.10 0.12 0.11 0.12 0.12 0.13 0.13 0.11 0.10 0.09 0.07 0.05 0.05 0.05 0.05 0.04 0.04 0.04 0.03 0.03 0.03 0.02 0.02 0.02 0.02 0.02 0.02 0.02 0.02 0.02 0.02 0.02 0.02 0.02 0.02 0.02 0.02 0.02
0.08 0.09 0.09 0.09 0.08 0.08 0.08 0.07 0.06 0.06 0.07 0.08 0.07 0.07 0.07 0.06 0.05 0.04 0.04 0.04 0.04 0.04 0.04 0.04 0.04 0.03 0.03 0.03 0.02 0.02 0.02 0.02 0.02 0.02 0.01 0.02 0.02 0.02 0.02 0.02 0.01 0.01 0.01
0.09 0.09 0.11 0.12 0.11 0.09 0.09 0.08 0.07 0.07 0.07 0.07 0.07 0.07 0.07 0.06 0.05 0.04 0.04 0.04 0.05 0.05 0.05 0.04 0.04 0.04 0.03 0.02 0.02 0.02 0.02 0.02 0.02 0.02 0.02 0.01 0.01 0.01 0.01 0.01 0.01 0.01 0.00
MSLP
1016.86 1017.15 1017.37 1017.50 1017.59 1017.65 1017.72 1017.81 1017.92 1018.06 1018.21 1018.34 1018.47 1018.58 1018.69 1018.84 1019.03 1019.29 1019.63 1020.03 1020.47 1020.90 1021.31 1021.66 1021.94 1022.14 1022.29 1022.40 1022.50 1022.60 1022.72 1022.86 1023.01 1023.17 1023.32 1023.45 1023.57 1023.66 1023.75 1023.83 1023.91 1023.98 1024.06
1016.82 1017.15 1017.39 1017.54 1017.64 1017.70 1017.77 1017.86 1017.98 1018.14 1018.32 1018.50 1018.67 1018.82 1018.96 1019.11 1019.28 1019.49 1019.77 1020.10 1020.47 1020.87 1021.26 1021.62 1021.93 1022.19 1022.39 1022.55 1022.68 1022.80 1022.92 1023.05 1023.18 1023.32 1023.45 1023.57 1023.68 1023.77 1023.85 1023.92 1023.99 1024.05 1024.12
1016.79 1017.15 1017.42 1017.62 1017.75 1017.84 1017.93 1018.03 1018.17 1018.35 1018.55 1018.77 1018.97 1019.14 1019.29 1019.43 1019.56 1019.71 1019.90 1020.14 1020.43 1020.76 1021.12 1021.47 1021.80 1022.10 1022.35 1022.57 1022.75 1022.90 1023.04 1023.17 1023.29 1023.41 1023.53 1023.65 1023.75 1023.84 1023.92 1023.98 1024.04 1024.09 1024.15
1016.73 1017.12 1017.45 1017.70 1017.88 1018.01 1018.13 1018.26 1018.41 1018.61 1018.83 1019.06 1019.28 1019.46 1019.61 1019.71 1019.80 1019.88 1019.98 1020.13 1020.33 1020.58 1020.88 1021.21 1021.55 1021.87 1022.17 1022.44 1022.66 1022.86 1023.03 1023.17 1023.31 1023.43 1023.55 1023.66 1023.76 1023.85 1023.93 1023.99 1024.05 1024.10 1024.14
1016.62 1017.04 1017.42 1017.73 1017.97 1018.16 1018.31 1018.46 1018.64 1018.84 1019.06 1019.29 1019.51 1019.69 1019.82 1019.90 1019.94 1019.96 1019.98 1020.04 1020.15 1020.33 1020.57 1020.85 1021.18 1021.52 1021.85 1022.15 1022.43 1022.67 1022.87 1023.05 1023.21 1023.34 1023.47 1023.58 1023.69 1023.78 1023.87 1023.94 1024.00 1024.05 1024.09
1016.45 1016.90 1017.32 1017.68 1017.98 1018.21 1018.41 1018.58 1018.76 1018.96 1019.17 1019.39 1019.60 1019.77 1019.89 1019.95 1019.95 1019.93 1019.90 1019.89 1019.93 1020.03 1020.20 1020.44 1020.74 1021.07 1021.41 1021.74 1022.05 1022.33 1022.58 1022.79 1022.98 1023.14 1023.28 1023.41 1023.53 1023.64 1023.73 1023.80 1023.86 1023.91 1023.95
1016.22 1016.68 1017.13 1017.53 1017.88 1018.16 1018.39 1018.58 1018.76 1018.94 1019.14 1019.34 1019.53 1019.69 1019.80 1019.86 1019.86 1019.81 1019.75 1019.70 1019.69 1019.73 1019.85 1020.03 1020.29 1020.59 1020.92 1021.25 1021.58 1021.89 1022.17 1022.42 1022.63 1022.83 1023.00 1023.14 1023.28 1023.39 1023.49 1023.57 1023.63 1023.69 1023.73
1015.97 1016.42 1016.88 1017.31 1017.69 1018.00 1018.25 1018.45 1018.63 1018.80 1018.97 1019.16 1019.33 1019.49 1019.61 1019.68 1019.69 1019.66 1019.60 1019.54 1019.49 1019.49 1019.56 1019.69 1019.88 1020.14 1020.43 1020.75 1021.07 1021.39 1021.69 1021.97 1022.21 1022.43 1022.63 1022.80 1022.94 1023.06 1023.16 1023.24 1023.30 1023.35 1023.39
1015.71 1016.14 1016.60 1017.04 1017.43 1017.76 1018.03 1018.24 1018.41 1018.57 1018.74 1018.90 1019.08 1019.24 1019.37 1019.47 1019.52 1019.53 1019.49 1019.44 1019.39 1019.36 1019.37 1019.45 1019.58 1019.77 1020.01 1020.29 1020.59 1020.89 1021.20 1021.49 1021.76 1022.01 1022.22 1022.40 1022.55 1022.67 1022.77 1022.84 1022.90 1022.94 1022.97
1015.48 1015.88 1016.32 1016.76 1017.16 1017.50 1017.78 1018.00 1018.17 1018.33 1018.49 1018.66 1018.83 1019.01 1019.17 1019.31 1019.41 1019.45 1019.46 1019.43 1019.38 1019.34 1019.32 1019.34 1019.41 1019.53 1019.71 1019.93 1020.19 1020.47 1020.76 1021.06 1021.34 1021.59 1021.82 1022.01 1022.16 1022.28 1022.36 1022.42 1022.45 1022.48 1022.49
1015.28 1015.66 1016.07 1016.50 1016.90 1017.25 1017.53 1017.77 1017.96 1018.13 1018.29 1018.46 1018.65 1018.85 1019.04 1019.21 1019.35 1019.44 1019.49 1019.49 1019.45 1019.41 1019.36 1019.34 1019.35 1019.41 1019.52 1019.69 1019.90 1020.15 1020.43 1020.71 1020.99 1021.25 1021.49 1021.68 1021.83 1021.93 1022.00 1022.03 1022.04 1022.03 1022.02
1015.11 1015.46 1015.86 1016.27 1016.67 1017.02 1017.32 1017.57 1017.78 1017.97 1018.15 1018.34 1018.54 1018.76 1018.97 1019.17 1019.34 1019.47 1019.54 1019.57 1019.55 1019.51 1019.45 1019.40 1019.37 1019.39 1019.45 1019.57 1019.74 1019.96 1020.21 1020.48 1020.76 1021.02 1021.25 1021.45 1021.59 1021.68 1021.72 1021.73 1021.70 1021.66 1021.63
1014.95 1015.29 1015.67 1016.06 1016.45 1016.81 1017.12 1017.40 1017.63 1017.85 1018.05 1018.26 1018.48 1018.71 1018.93 1019.15 1019.33 1019.47 1019.57 1019.61 1019.61 1019.58 1019.52 1019.47 1019.43 1019.42 1019.46 1019.55 1019.69 1019.89 1020.12 1020.38 1020.65 1020.91 1021.14 1021.33 1021.46 1021.54 1021.57 1021.55 1021.50 1021.43 1021.36
1014.78 1015.11 1015.47 1015.86 1016.24 1016.60 1016.93 1017.22 1017.49 1017.74 1017.97 1018.20 1018.43 1018.66 1018.88 1019.09 1019.27 1019.41 1019.51 1019.57 1019.58 1019.57 1019.54 1019.50 1019.48 1019.48 1019.52 1019.61 1019.74 1019.93 1020.15 1020.40 1020.66 1020.91 1021.14 1021.32 1021.46 1021.53 1021.55 1021.52 1021.46 1021.37 1021.27
1014.58 1014.91 1015.26 1015.63 1016.01 1016.37 1016.71 1017.03 1017.33 1017.61 1017.87 1018.12 1018.35 1018.58 1018.78 1018.97 1019.13 1019.26 1019.35 1019.42 1019.45 1019.47 1019.48 1019.49 1019.51 1019.55 1019.62 1019.73 1019.87 1020.05 1020.26 1020.50 1020.75 1020.99 1021.21 1021.40 1021.53 1021.62 1021.65 1021.62 1021.56 1021.47 1021.36
1014.36 1014.69 1015.04 1015.40 1015.76 1016.13 1016.48 1016.82 1017.15 1017.46 1017.74 1018.01 1018.25 1018.46 1018.65 1018.81 1018.95 1019.05 1019.14 1019.21 1019.27 1019.33 1019.39 1019.47 1019.55 1019.65 1019.77 1019.90 1020.06 1020.25 1020.45 1020.66 1020.89 1021.11 1021.32 1021.50 1021.64 1021.75 1021.80 1021.80 1021.77 1021.69 1021.60
1014.15 1014.48 1014.82 1015.18 1015.53 1015.90 1016.26 1016.62 1016.97 1017.31 1017.62 1017.90 1018.15 1018.36 1018.54 1018.68 1018.79 1018.88 1018.96 1019.04 1019.14 1019.24 1019.37 1019.51 1019.66 1019.83 1020.00 1020.17 1020.34 1020.51 1020.69 1020.87 1021.05 1021.24 1021.42 1021.59 1021.74 1021.86 1021.95 1022.00 1022.01 1021.98 1021.92
1013.98 1014.33 1014.67 1015.01 1015.37 1015.73 1016.10 1016.48 1016.85 1017.22 1017.56 1017.87 1018.13 1018.35 1018.52 1018.65 1018.76 1018.84 1018.93 1019.03 1019.16 1019.32 1019.50 1019.71 1019.93 1020.15 1020.35 1020.54 1020.70 1020.85 1020.98 1021.10 1021.22 1021.35 1021.49 1021.64 1021.79 1021.93 1022.06 1022.16 1022.24 1022.27 1022.26
1013.92 1014.27 1014.61 1014.96 1015.31 1015.68 1016.06 1016.45 1016.86 1017.25 1017.63 1017.97 1018.27 1018.51 1018.70 1018.85 1018.96 1019.06 1019.16 1019.29 1019.45 1019.65 1019.89 1020.14 1020.41 1020.65 1020.87 1021.05 1021.19 1021.28 1021.33 1021.37 1021.41 1021.46 1021.53 1021.64 1021.77 1021.93 1022.09 1022.25 1022.38 1022.48 1022.54
1013.98 1014.34 1014.70 1015.05 1015.41 1015.78 1016.18 1016.60 1017.03 1017.47 1017.89 1018.28 1018.62 1018.90 1019.13 1019.31 1019.45 1019.58 1019.71 1019.87 1020.06 1020.29 1020.56 1020.84 1021.12 1021.37 1021.57 1021.72 1021.79 1021.80 1021.77 1021.70 1021.64 1021.59 1021.58 1021.63 1021.73 1021.87 1022.05 1022.24 1022.43 1022.59 1022.70
1014.17 1014.56 1014.94 1015.31 1015.68 1016.08 1016.50 1016.94 1017.41 1017.89 1018.36 1018.81 1019.21 1019.55 1019.83 1020.06 1020.25 1020.41 1020.58 1020.76 1020.97 1021.22 1021.49 1021.78 1022.05 1022.27 1022.43 1022.52 1022.51 1022.43 1022.29 1022.12 1021.93 1021.78 1021.68 1021.65 1021.69 1021.80 1021.96 1022.17 1022.38 1022.57 1022.72
1014.49 1014.92 1015.33 1015.73 1016.13 1016.55 1017.00 1017.48 1017.99 1018.52 1019.04 1019.55 1020.01 1020.42 1020.77 1021.05 1021.29 1021.50 1021.69 1021.89 1022.12 1022.36 1022.62 1022.88 1023.11 1023.29 1023.39 1023.40 1023.31 1023.14 1022.89 1022.61 1022.32 1022.06 1021.86 1021.74 1021.71 1021.76 1021.88 1022.06 1022.25 1022.43 1022.58
1014.91 1015.38 1015.84 1016.29 1016.74 1017.20 1017.69 1018.20 1018.75 1019.32 1019.90 1020.46 1020.98 1021.45 1021.85 1022.19 1022.48 1022.72 1022.93 1023.14 1023.36 1023.59 1023.81 1024.03 1024.21 1024.33 1024.36 1024.30 1024.14 1023.88 1023.56 1023.18 1022.81 1022.45 1022.16 1021.95 1021.83 1021.80 1021.85 1021.96 1022.09 1022.22 1022.32
1015.39 1015.94 1016.46 1016.97 1017.47 1017.98 1018.51 1019.07 1019.65 1020.26 1020.87 1021.47 1022.04 1022.55 1022.99 1023.37 1023.68 1023.94 1024.16 1024.37 1024.56 1024.75 1024.93 1025.09 1025.22 1025.27 1025.25 1025.13 1024.92 1024.61 1024.23 1023.80 1023.36 1022.94 1022.58 1022.29 1022.08 1021.96 1021.91 1021.91 1021.94 1021.98 1021.98
1015.93 1016.56 1017.16 1017.74 1018.31 1018.87 1019.44 1020.03 1020.64 1021.27 1021.90 1022.52 1023.10 1023.62 1024.08 1024.47 1024.78 1025.04 1025.25 1025.43 1025.59 1025.73 1025.86 1025.97 1026.04 1026.05 1025.98 1025.83 1025.59 1025.26 1024.86 1024.41 1023.94 1023.49 1023.07 1022.71 1022.42 1022.20 1022.04 1021.92 1021.83 1021.73 1021.62
1016.52 1017.24 1017.93 1018.59 1019.22 1019.83 1020.44 1021.06 1021.68 1022.31 1022.93 1023.53 1024.09 1024.60 1025.05 1025.41 1025.71 1025.93 1026.11 1026.25 1026.36 1026.46 1026.54 1026.60 1026.62 1026.60 1026.51 1026.34 1026.10 1025.78 1025.39 1024.95 1024.49 1024.02 1023.58 1023.18 1022.82 1022.51 1022.23 1021.99 1021.76 1021.52 1021.27
Thickness
5747 5745 5743 5742 5744 5742 5740 5739 5739 5737 5736 5736 5736 5736 5735 5734 5734 5733 5727 5722 5720 5718 5717 5716 5715 5714 5713 5713 5712 5711 5710 5710 5709 5708 5708 5707 5706 5706 5705 5704 5703 5702 5702
5746 5745 5743 5741 5742 5741 5741 5739 5738 5736 5736 5736 5735 5734 5734 5733 5731 5730 5729 5723 5719 5717 5716 5716 5714 5713 5712 5712 5711 5710 5709 5709 5708 5707 5706 5705 5704 5704 5703 5702 5701 5701 5700
5743 5743 5744 5741 5742 5740 5737 5737 5736 5736 5735 5736 5735 5734 5733 5732 5730 5728 5728 5726 5722 5718 5716 5715 5714 5713 5712 5711 5710 5709 5708 5708 5707 5705 5704 5703 5702 5702 5701 5700 5700 5699 5698
5741 5741 5743 5743 5740 5740 5738 5737 5737 5736 5735 5735 5734 5734 5733 5730 5729 5727 5727 5725 5724 5723 5718 5715 5714 5713 5711 5710 5710 5709 5708 5707 5705 5704 5703 5702 5701 5700 5699 5698 5698 5697 5696
5740 5740 5742 5741 5739 5739 5738 5738 5737 5735 5733 5733 5733 5732 5733 5732 5729 5729 5728 5726 5724 5723 5722 5716 5714 5713 5712 5711 5710 5709 5708 5706 5705 5704 5702 5701 5700 5699 5698 5697 5696 5696 5695
5739 5740 5740 5739 5739 5739 5737 5736 5734 5732 5733 5732 5735 5734 5733 5733 5731 5730 5729 5728 5725 5724 5723 5721 5717 5715 5713 5712 5711 5710 5709 5707 5705 5704 5702 5701 5699 5698 5697 5696 5695 5695 5694
5738 5737 5740 5738 5737 5738 5736 5736 5734 5732 5732 5733 5731 5729 5732 5734 5732 5731 5730 5730 5729 5726 5725 5722 5721 5720 5717 5714 5712 5711 5710 5708 5706 5704 5703 5701 5700 5698 5697 5696 5695 5695 5694
5737 5738 5737 5738 5737 5736 5734 5734 5732 5733 5733 5733 5730 5727 5725 5727 5729 5734 5731 5729 5729 5728 5727 5725 5723 5721 5720 5718 5716 5713 5711 5709 5707 5705 5704 5702 5701 5699 5698 5697 5696 5695 5694
5736 5736 5737 5737 5736 5736 5735 5732 5732 5730 5730 5732 5733 5729 5724 5723 5728 5732 5732 5732 5730 5729 5729 5728 5726 5724 5722 5720 5718 5714 5712 5710 5708 5706 5705 5703 5701 5700 5699 5697 5696 5695 5694
5735 5735 5735 5735 5735 5736 5734 5733 5733 5732 5730 5729 5730 5730 5730 5731 5725 5726 5730 5733 5732 5730 5731 5730 5729 5726 5723 5722 5719 5716 5713 5711 5709 5707 5706 5704 5702 5701 5699 5698 5697 5696 5695
5734 5735 5734 5734 5733 5734 5734 5732 5731 5730 5732 5730 5730 5730 5729 5728 5729 5726 5723 5728 5730 5732 5732 5730 5729 5728 5725 5723 5720 5718 5714 5712 5710 5708 5706 5704 5703 5701 5700 5698 5697 5696 5695
5733 5733 5733 5732 5732 5732 5731 5730 5730 5729 5730 5730 5730 5731 5729 5728 5727 5727 5724 5723 5725 5729 5730 5730 5729 5728 5725 5724 5721 5718 5714 5712 5710 5708 5706 5704 5702 5701 5699 5698 5697 5696 5694
5731 5731 5732 5731 5731 5729 5729 5728 5727 5729 5728 5726 5726 5728 5730 5730 5730 5728 5725 5724 5724 5726 5726 5727 5727 5725 5724 5722 5719 5715 5712 5710 5708 5706 5704 5702 5700 5699 5697 5696 5694 5693 5692
5732 5731 5729 5729 5728 5727 5727 5726 5727 5726 5726 5725 5725 5725 5725 5727 5729 5728 5725 5722 5718 5720 5722 5722 5723 5721 5720 5718 5714 5711 5710 5707 5705 5703 5701 5699 5697 5695 5694 5692 5691 5689 5688
5730 5728 5727 5726 5725 5725 5725 5723 5723 5722 5723 5723 5723 5722 5722 5725 5724 5725 5724 5722 5716 5711 5713 5715 5717 5715 5714 5711 5708 5707 5705 5701 5699 5697 5696 5694 5692 5690 5689 5687 5686 5684 5683
5727 5726 5724 5724 5723 5722 5721 5719 5719 5719 5718 5718 5718 5717 5716 5720 5720 5719 5719 5718 5716 5712 5708 5711 5709 5709 5706 5707 5701 5700 5696 5694 5691 5690 5688 5686 5685 5683 5681 5680 5678 5677 5676
5724 5722 5722 5721 5719 5719 5718 5716 5717 5715 5714 5713 5713 5712 5710 5711 5712 5712 5712 5711 5710 5708 5702 5702 5703 5699 5696 5695 5693 5691 5690 5687 5683 5680 5679 5677 5676 5674 5672 5671 5669 5668 5666
5722 5720 5719 5717 5716 5715 5715 5714 5712 5711 5710 5708 5708 5706 5705 5705 5703 5704 5703 5703 5702 5700 5697 5693 5692 5690 5686 5684 5682 5681 5681 5680 5676 5670 5669 5667 5665 5663 5662 5660 5659 5658 5657
5718 5716 5715 5713 5712 5711 5710 5709 5708 5706 5704 5703 5701 5699 5698 5697 5695 5695 5694 5694 5693 5693 5691 5687 5682 5679 5677 5675 5672 5671 5670 5666 5666 5661 5658 5655 5654 5652 5650 5649 5647 5646 5644
5714 5712 5711 5709 5708 5706 5704 5703 5701 5698 5696 5694 5693 5691 5689 5688 5686 5684 5683 5682 5681 5680 5678 5676 5672 5668 5665 5662 5660 5659 5658 5656 5654 5653 5649 5646 5643 5640 5639 5637 5635 5634 5632
5710 5707 5706 5704 5702 5700 5699 5697 5694 5691 5687 5684 5681 5678 5676 5674 5672 5672 5672 5670 5669 5667 5665 5662 5658 5655 5651 5648 5646 5646 5644 5643 5642 5639 5637 5636 5634 5632 5629 5625 5622 5619 5617
5703 5701 5699 5697 5696 5694 5690 5687 5685 5682 5678 5674 5669 5666 5663 5660 5658 5656 5654 5653 5653 5652 5650 5647 5644 5639 5634 5633 5631 5631 5630 5629 5627 5626 5622 5622 5622 5620 5616 5613 5608 5605 5602
5696 5693 5691 5689 5686 5682 5679 5677 5674 5672 5667 5663 5659 5655 5653 5648 5646 5644 5641 5639 5636 5633 5632 5630 5627 5622 5619 5617 5615 5616 5613 5611 5608 5608 5607 5607 5607 5604 5601 5598 5593 5589 5586
5687 5684 5681 5679 5675 5670 5668 5666 5663 5661 5656 5651 5647 5643 5641 5637 5634 5632 5629 5625 5621 5617 5616 5614 5610 5605 5602 5599 5598 5598 5596 5596 5595 5593 5590 5590 5590 5587 5586 5582 5578 5574 5570
5678 5674 5670 5667 5663 5658 5656 5654 5653 5649 5644 5638 5634 5630 5628 5624 5619 5618 5616 5611 5607 5602 5597 5594 5590 5587 5584 5582 5580 5582 5581 5582 5582 5579 5575 5572 5571 5570 5570 5568 5563 5558 5556
5668 5664 5659 5656 5652 5647 5643 5642 5641 5639 5633 5627 5621 5616 5612 5609 5606 5604 5603 5598 5593 5589 5585 5582 5577 5574 5571 5568 5565 5563 5563 5562 5562 5561 5556 5550 5550 5549 5551 5552 5547 5543 5541